TimeHST,TemperatureF,Dew PointF,Humidity,Sea Level PressureIn,VisibilityMPH,Wind Direction,Wind SpeedMPH,Gust SpeedMPH,PrecipitationIn,Events,Conditions,WindDirDegrees,DateUTC
12:53 AM,72.0,63.0,73,30.11,10.0,NE,13.8,23.0,N/A,,Scattered Clouds,50,2013-02-23 10:53:00
1:53 AM,71.1,63.0,75,30.09,10.0,ENE,11.5,-,N/A,,Partly Cloudy,70,2013-02-23 11:53:00
2:53 AM,71.1,63.0,75,30.07,10.0,ENE,12.7,-,N/A,,Partly Cloudy,60,2013-02-23 12:53:00
3:53 AM,71.1,63.0,75,30.07,10.0,NE,10.4,-,N/A,,Partly Cloudy,50,2013-02-23 13:53:00
4:53 AM,71.1,64.0,78,30.07,10.0,NE,13.8,-,N/A,,Clear,50,2013-02-23 14:53:00
5:53 AM,71.1,63.0,75,30.08,10.0,ENE,11.5,-,N/A,,Scattered Clouds,60,2013-02-23 15:53:00
6:53 AM,71.1,62.1,73,30.10,10.0,NE,10.4,17.3,N/A,,Scattered Clouds,40,2013-02-23 16:53:00
7:53 AM,72.0,63.0,73,30.12,10.0,NE,10.4,-,N/A,,Mostly Cloudy,40,2013-02-23 17:53:00
8:53 AM,73.0,64.0,73,30.14,10.0,ENE,6.9,-,0.00,,Scattered Clouds,60,2013-02-23 18:53:00
9:53 AM,75.0,64.0,69,30.14,10.0,East,12.7,-,N/A,,Scattered Clouds,100,2013-02-23 19:53:00
10:53 AM,78.1,64.0,62,30.14,10.0,East,12.7,21.9,N/A,,Scattered Clouds,80,2013-02-23 20:53:00
11:53 AM,78.1,63.0,60,30.11,10.0,ENE,16.1,27.6,0.00,,Scattered Clouds,60,2013-02-23 21:53:00
12:53 PM,80.1,63.0,56,30.08,10.0,ENE,21.9,31.1,N/A,,Scattered Clouds,60,2013-02-23 22:53:00
1:53 PM,78.1,64.0,62,30.08,10.0,ENE,19.6,33.4,N/A,,Scattered Clouds,70,2013-02-23 23:53:00
2:53 PM,78.1,63.0,60,30.05,10.0,ENE,16.1,26.5,0.00,,Scattered Clouds,60,2013-02-24 00:53:00
3:53 PM,79.0,63.0,58,30.05,10.0,NE,15.0,24.2,N/A,,Scattered Clouds,40,2013-02-24 01:53:00
4:53 PM,75.9,63.0,64,30.06,10.0,ENE,17.3,26.5,N/A,,Mostly Cloudy,70,2013-02-24 02:53:00
5:53 PM,73.9,63.0,68,30.08,10.0,ENE,17.3,21.9,0.00,,Scattered Clouds,60,2013-02-24 03:53:00
6:53 PM,72.0,64.0,76,30.09,10.0,NE,15.0,-,N/A,Rain,Light Rain,40,2013-02-24 04:53:00
7:38 PM,69.8,66.2,88,30.10,6.0,NE,12.7,20.7,0.16,Rain,Heavy Rain,40,2013-02-24 05:38:00
7:46 PM,69.8,66.2,88,30.10,8.0,NE,16.1,24.2,0.17,Rain,Light Rain,50,2013-02-24 05:46:00
7:47 PM,69.8,66.2,88,30.10,8.0,NE,12.7,24.2,0.17,Rain,Light Rain,40,2013-02-24 05:47:00
7:53 PM,70.0,66.9,90,30.11,10.0,NE,16.1,24.2,0.17,Rain,Light Rain,50,2013-02-24 05:53:00
8:53 PM,70.0,66.9,90,30.12,10.0,NE,13.8,26.5,0.00,Rain,Light Rain,50,2013-02-24 06:53:00
9:53 PM,70.0,64.0,81,30.13,10.0,ENE,20.7,26.5,0.00,Rain,Light Rain,60,2013-02-24 07:53:00
10:53 PM,71.1,63.0,75,30.13,10.0,ENE,16.1,-,0.00,,Scattered Clouds,60,2013-02-24 08:53:00
11:53 PM,70.0,63.0,78,30.13,10.0,ENE,15.0,-,0.00,Rain,Light Rain,60,2013-02-24 09:53:00